����,���ϕ���(m/s),���ϕ���,�ő�u�ԕ���(m/s),�ő啗��������,�C��(��),���x(%),10���Ԉړ��ώZ�J��(mm),1���Ԉړ��ώZ�J��(mm),���J��(mm),�݌v�J��(mm),����(���ώZ)(MJ/m2),����(���ώZ)(min),���n�C��(hPa),�C�ʋC��(hPa)
2019-08-19T00:00:00+09:00,0.7,�k�k��,1.6,�k,27.5,79.9,0,0,0,0,22.68,545,996.1,1009.3
2019-08-19T00:01:00+09:00,0.7,�k�k��,1.6,�k,27.5,79.9,0,0,0,0,0,0,996.1,1009.3
2019-08-19T00:02:00+09:00,0.6,�k�k��,1.4,�k�k��,27.5,79.7,0,0,0,0,0,0,996.1,1009.3
2019-08-19T00:03:00+09:00,0.7,�k�k��,1.4,�k�k��,27.6,79.2,0,0,0,0,0,0,996.1,1009.3
2019-08-19T00:04:00+09:00,0.6,�k�k��,1.4,�k�k��,27.4,78.7,0,0,0,0,0,0,996.1,1009.3
2019-08-19T00:05:00+09:00,0.6,�k,1.4,�k�k��,27.4,78.7,0,0,0,0,0,0,996.1,1009.3
2019-08-19T00:06:00+09:00,0.6,�k,1.4,�k�k��,27.5,78.7,0,0,0,0,0,0,996.1,1009.3
2019-08-19T00:07:00+09:00,0.6,�k,1.4,�k�k��,27.4,78.7,0,0,0,0,0,0,996.1,1009.3
2019-08-19T00:08:00+09:00,0.6,�k,1.4,�k�k��,27.3,79.2,0,0,0,0,0,0,996.1,1009.3
2019-08-19T00:09:00+09:00,0.6,�k�k��,1.4,�k�k��,27.3,79.5,0,0,0,0,0,0,996.1,1009.3
2019-08-19T00:10:00+09:00,0.6,�k�k��,1.4,�k�k��,27.2,80,0,0,0,0,0,0,996.2,1009.4
2019-08-19T00:11:00+09:00,0.6,�k�k��,1.4,�k��,27.3,80.2,0,0,0,0,0,0,996.1,1009.3
2019-08-19T00:12:00+09:00,0.5,�k�k��,1.4,�k��,27.2,80.5,0,0,0,0,0,0,996.1,1009.3
2019-08-19T00:13:00+09:00,0.5,�k��,1.4,�k��,27.3,80.8,0,0,0,0,0,0,996.2,1009.4
2019-08-19T00:14:00+09:00,0.6,�k��,1.4,�k��,27.1,81.2,0,0,0,0,0,0,996.2,1009.4
2019-08-19T00:15:00+09:00,0.7,�k��,1.4,�k��,27,81.6,0,0,0,0,0,0,996.2,1009.4
2019-08-19T00:16:00+09:00,0.7,�k��,1.4,�k��,27.1,81.5,0,0,0,0,0,0,996.2,1009.4
2019-08-19T00:17:00+09:00,0.7,�k��,1.4,�k��,27,81.3,0,0,0,0,0,0,996.2,1009.4
2019-08-19T00:18:00+09:00,0.7,�k��,1.4,�k��,27,81.5,0,0,0,0,0,0,996.2,1009.4
2019-08-19T00:19:00+09:00,0.7,�k��,1.4,���k��,27.3,81.3,0,0,0,0,0,0,996.2,1009.4
2019-08-19T00:20:00+09:00,0.7,�k��,1.4,���k��,27.4,80.6,0,0,0,0,0,0,996.2,1009.4
2019-08-19T00:21:00+09:00,0.7,�k��,1.8,�k,27.3,80.2,0,0,0,0,0,0,996.2,1009.4
2019-08-19T00:22:00+09:00,0.8,�k��,1.8,�k,27.3,79.9,0,0,0,0,0,0,996.2,1009.4
2019-08-19T00:23:00+09:00,0.8,�k��,1.8,�k,27.4,79.5,0,0,0,0,0,0,996.2,1009.4
2019-08-19T00:24:00+09:00,0.8,�k�k��,1.8,�k,27.3,79.2,0,0,0,0,0,0,996.1,1009.3
2019-08-19T00:25:00+09:00,0.8,�k�k��,1.8,�k,27.5,79,0,0,0,0,0,0,996.1,1009.3
2019-08-19T00:26:00+09:00,0.7,�k,1.8,�k,27.2,79.1,0,0,0,0,0,0,996.1,1009.3
2019-08-19T00:27:00+09:00,0.7,�k�k��,1.8,�k,27.1,79.9,0,0,0,0,0,0,996.1,1009.3
2019-08-19T00:28:00+09:00,0.7,�k�k��,1.8,�k,27.2,80.9,0,0,0,0,0,0,996.1,1009.3
2019-08-19T00:29:00+09:00,0.6,�k�k��,1.8,�k,27.1,80.6,0,0,0,0,0,0,996.1,1009.3
2019-08-19T00:30:00+09:00,0.6,�k�k��,1.8,�k,27.1,81.1,0,0,0,0,0,0,996.1,1009.3
2019-08-19T00:31:00+09:00,0.6,�k��,1.7,�k�k��,27,80.9,0,0,0,0,0,0,996.1,1009.3
2019-08-19T00:32:00+09:00,0.5,�k��,1.7,�k�k��,27,80.4,0,0,0,0,0,0,996.2,1009.4
2019-08-19T00:33:00+09:00,,,,,,,,,,,,,,
2019-08-19T00:34:00+09:00,0.4,�k��,1.5,���k��,27.3,79.9,0,0,0,0,0,0,996.2,1009.4
2019-08-19T00:35:00+09:00,0.3,�k��,1.1,���k��,27.4,79.5,0,0,0,0,0,0,996.2,1009.4
2019-08-19T00:36:00+09:00,0.4,�k�k��,1.1,���k��,27.4,79.4,0,0,0,0,0,0,996.2,1009.4
2019-08-19T00:37:00+09:00,,,,,,,,,,,,,,
2019-08-19T00:38:00+09:00,0.4,�k,0.9,��,27.5,79,0,0,0,0,0,0,996.3,1009.5
2019-08-19T00:39:00+09:00,0.4,�k,1.1,�k��,27.3,79.1,0,0,0,0,0,0,996.3,1009.5
2019-08-19T00:40:00+09:00,0.4,�k,1.4,�k��,27.1,79.3,0,0,0,0,0,0,996.3,1009.5
2019-08-19T00:41:00+09:00,0.5,�k,1.4,�k��,27.2,79.9,0,0,0,0,0,0,996.3,1009.5
2019-08-19T00:42:00+09:00,0.4,�k�k��,1.4,�k��,27.3,79.8,0,0,0,0,0,0,996.3,1009.5
2019-08-19T00:43:00+09:00,0.4,�k�k��,1.4,�k��,27.2,80.3,0,0,0,0,0,0,996.3,1009.5
2019-08-19T00:44:00+09:00,0.4,�k�k��,1.4,�k��,27.4,80.7,0,0,0,0,0,0,996.3,1009.5
2019-08-19T00:45:00+09:00,0.4,�k�k��,1.4,�k��,27.2,80.5,0,0,0,0,0,0,996.3,1009.5
2019-08-19T00:46:00+09:00,0.4,�k�k��,1.4,�k��,27.2,80.5,0,0,0,0,0,0,996.3,1009.5
2019-08-19T00:47:00+09:00,0.4,�k�k��,1.4,�k��,27.3,80.2,0,0,0,0,0,0,996.3,1009.5
2019-08-19T00:48:00+09:00,0.3,�k�k��,1.4,�k��,27.4,79.9,0,0,0,0,0,0,996.3,1009.5
2019-08-19T00:49:00+09:00,0.3,�k�k��,1.4,�k��,27.3,79.6,0,0,0,0,0,0,996.4,1009.6
2019-08-19T00:50:00+09:00,0.3,�k�k��,1.2,�k��,27.4,79.4,0,0,0,0,0,0,996.4,1009.6
2019-08-19T00:51:00+09:00,0.3,�k�k��,1,�k,27.4,79.1,0,0,0,0,0,0,996.3,1009.5
2019-08-19T00:52:00+09:00,0.4,�k�k��,1.1,�k,27.6,78.5,0,0,0,0,0,0,996.3,1009.5
2019-08-19T00:53:00+09:00,0.4,�k,1.1,�k,27.6,78.1,0,0,0,0,0,0,996.4,1009.6
2019-08-19T00:54:00+09:00,0.4,�k,1.1,�k,27.6,77.7,0,0,0,0,0,0,996.4,1009.6
2019-08-19T00:55:00+09:00,0.4,�k,1.1,�k,27.4,77.8,0,0,0,0,0,0,996.4,1009.6
2019-08-19T00:56:00+09:00,0.4,�k�k��,1.1,�k,27.3,78.4,0,0,0,0,0,0,996.4,1009.6
2019-08-19T00:57:00+09:00,0.5,�k�k��,1.2,���k��,27.3,78.5,0,0,0,0,0,0,996.4,1009.6
2019-08-19T00:58:00+09:00,0.6,�k�k��,1.2,���k��,27.2,78.7,0,0,0,0,0,0,996.4,1009.6
2019-08-19T00:59:00+09:00,0.7,�k�k��,1.2,���k��,27.2,79.8,0,0,0,0,0,0,996.4,1009.6
2019-08-19T01:00:00+09:00,0.7,�k��,1.2,���k��,27.2,80.4,0,0,0,0,0,0,996.4,1009.6
2019-08-19T01:01:00+09:00,0.7,�k��,1.4,��,27.2,80.5,0,0,0,0,0,0,996.4,1009.6
2019-08-19T01:02:00+09:00,0.8,���k��,1.8,��,26.9,80.2,0,0,0,0,0,0,996.4,1009.6
2019-08-19T01:03:00+09:00,0.9,���k��,1.8,��,27.2,80.6,0,0,0,0,0,0,996.4,1009.6
2019-08-19T01:04:00+09:00,0.9,���k��,1.8,��,27.1,80.1,0,0,0,0,0,0,996.4,1009.6
2019-08-19T01:05:00+09:00,1,���k��,1.8,��,27.2,80,0,0,0,0,0,0,996.4,1009.6
2019-08-19T01:06:00+09:00,1,���k��,1.8,��,27.5,79.4,0,0,0,0,0,0,996.4,1009.6
2019-08-19T01:07:00+09:00,1,���k��,1.8,��,27.3,79,0,0,0,0,0,0,996.4,1009.6
2019-08-19T01:08:00+09:00,,,,,,,,,,,,,,
2019-08-19T01:09:00+09:00,1,���k��,1.8,��,27.3,79.1,0,0,0,0,0,0,996.4,1009.6
2019-08-19T01:10:00+09:00,1.1,���k��,1.8,��,27.4,79.1,0,0,0,0,0,0,996.4,1009.6
2019-08-19T01:11:00+09:00,1.1,���k��,1.8,��,27.5,78.8,0,0,0,0,0,0,996.4,1009.6
2019-08-19T01:12:00+09:00,1.1,�k��,1.8,���k��,27.2,78.9,0,0,0,0,0,0,996.4,1009.6
2019-08-19T01:13:00+09:00,1.1,�k��,1.8,���k��,27.2,79.8,0,0,0,0,0,0,996.3,1009.5
2019-08-19T01:14:00+09:00,1.1,�k��,1.8,���k��,27.2,80.4,0,0,0,0,0,0,996.3,1009.5
2019-08-19T01:15:00+09:00,1,�k��,1.8,���k��,27.1,80.6,0,0,0,0,0,0,996.4,1009.6
2019-08-19T01:16:00+09:00,1,�k��,1.8,���k��,27.1,80.6,0,0,0,0,0,0,996.4,1009.6
2019-08-19T01:17:00+09:00,0.9,���k��,1.8,���k��,26.6,81.1,0,0,0,0,0,0,996.4,1009.6
2019-08-19T01:18:00+09:00,0.9,���k��,1.8,���k��,26.3,82.2,0,0,0,0,0,0,996.4,1009.6
2019-08-19T01:19:00+09:00,0.8,���k��,1.8,���k��,26.6,83.3,0,0,0,0,0,0,996.4,1009.6
2019-08-19T01:20:00+09:00,0.7,��,1.8,���k��,26.9,82.8,0,0,0,0,0,0,996.4,1009.6
2019-08-19T01:21:00+09:00,0.7,��,1.8,���k��,26.7,82.2,0,0,0,0,0,0,996.4,1009.6
2019-08-19T01:22:00+09:00,0.6,��,1.6,���k��,26.6,82.3,0,0,0,0,0,0,996.4,1009.6
2019-08-19T01:23:00+09:00,0.5,���쐼,1.2,���쐼,26.6,82.4,0,0,0,0,0,0,996.4,1009.6
2019-08-19T01:24:00+09:00,0.4,���쐼,1.2,���쐼,26.6,82.5,0,0,0,0,0,0,996.4,1009.6
2019-08-19T01:25:00+09:00,0.4,���쐼,1.2,���쐼,26.8,82.3,0,0,0,0,0,0,996.4,1009.6
2019-08-19T01:26:00+09:00,0.4,���쐼,1.2,���쐼,27,81.7,0,0,0,0,0,0,996.4,1009.6
2019-08-19T01:27:00+09:00,0.4,���쐼,1.2,���쐼,27.1,81.2,0,0,0,0,0,0,996.4,1009.6
2019-08-19T01:28:00+09:00,0.5,��,1.1,���k��,27.1,81,0,0,0,0,0,0,996.4,1009.6
2019-08-19T01:29:00+09:00,0.5,��,1.1,���k��,27.2,80.8,0,0,0,0,0,0,996.3,1009.5
2019-08-19T01:30:00+09:00,0.5,��,1.1,���k��,27.2,80.5,0,0,0,0,0,0,996.3,1009.5
2019-08-19T01:31:00+09:00,0.6,���k��,1.1,���k��,27.1,80.8,0,0,0,0,0,0,996.3,1009.5
2019-08-19T01:32:00+09:00,0.6,���k��,1.1,���k��,27,81.3,0,0,0,0,0,0,996.3,1009.5
2019-08-19T01:33:00+09:00,0.7,���k��,1.1,���k��,27.1,81.4,0,0,0,0,0,0,996.4,1009.6
2019-08-19T01:34:00+09:00,0.7,���k��,1.1,���k��,27,81,0,0,0,0,0,0,996.4,1009.6
2019-08-19T01:35:00+09:00,0.7,��,1.1,���k��,26.5,81.4,0,0,0,0,0,0,996.4,1009.6
2019-08-19T01:36:00+09:00,0.7,��,1.2,��,26.4,82.5,0,0,0,0,0,0,996.4,1009.6
2019-08-19T01:37:00+09:00,0.7,��,1.2,��,26.6,82.9,0,0,0,0,0,0,996.4,1009.6
2019-08-19T01:38:00+09:00,0.8,��,1.4,��,27,82.4,0,0,0,0,0,0,996.4,1009.6
2019-08-19T01:39:00+09:00,0.8,��,1.4,��,27,81.9,0,0,0,0,0,0,996.4,1009.6
2019-08-19T01:40:00+09:00,0.8,��,1.4,��,27.1,81.4,0,0,0,0,0,0,996.4,1009.6
2019-08-19T01:41:00+09:00,0.8,��,1.4,��,27.2,81,0,0,0,0,0,0,996.4,1009.6
2019-08-19T01:42:00+09:00,0.9,��,1.4,��,26.9,80.8,0,0,0,0,0,0,996.4,1009.6
2019-08-19T01:43:00+09:00,0.9,��,1.4,��,27.1,81.2,0,0,0,0,0,0,996.4,1009.6
2019-08-19T01:44:00+09:00,1,��,1.6,���k��,26.9,81,0,0,0,0,0,0,996.4,1009.6
2019-08-19T01:45:00+09:00,1.1,��,1.6,���k��,27,81.5,0,0,0,0,0,0,996.4,1009.6
2019-08-19T01:46:00+09:00,,,,,,,,,,,,,,
2019-08-19T01:47:00+09:00,1.1,��,1.6,���k��,27.2,80.8,0,0,0,0,0,0,996.4,1009.6
2019-08-19T01:48:00+09:00,1.1,��,1.6,���k��,27.1,80.5,0,0,0,0,0,0,996.4,1009.6
2019-08-19T01:49:00+09:00,1,��,1.6,���k��,26.9,81.2,0,0,0,0,0,0,996.4,1009.6
2019-08-19T01:50:00+09:00,0.9,��,1.6,���k��,26.7,82,0,0,0,0,0,0,996.4,1009.6
2019-08-19T01:51:00+09:00,0.8,��,1.6,���k��,26.6,82.6,0,0,0,0,0,0,996.3,1009.5
2019-08-19T01:52:00+09:00,0.7,���k��,1.6,���k��,26.5,82.8,0,0,0,0,0,0,996.3,1009.5
2019-08-19T01:53:00+09:00,0.6,���k��,1.6,���k��,26.6,83,0,0,0,0,0,0,996.3,1009.5
2019-08-19T01:54:00+09:00,0.5,���k��,1.4,���k��,26.6,83.1,0,0,0,0,0,0,996.3,1009.5
2019-08-19T01:55:00+09:00,0.4,�k��,1.1,���k��,26.7,83.1,0,0,0,0,0,0,996.3,1009.5
2019-08-19T01:56:00+09:00,0.3,�k�k��,1.1,���k��,26.9,82.8,0,0,0,0,0,0,996.3,1009.5
2019-08-19T01:57:00+09:00,0.3,�k�k��,1,��,26.8,82.4,0,0,0,0,0,0,996.3,1009.5
2019-08-19T01:58:00+09:00,0.2,�É�,0.8,�쐼,26.7,82.6,0,0,0,0,0,0,996.3,1009.5
2019-08-19T01:59:00+09:00,0.2,�É�,0.6,�k�k��,26.7,82.8,0,0,0,0,0,0,996.3,1009.5
2019-08-19T02:00:00+09:00,0.3,�k��,0.7,�k,26.7,82.8,0,0,0,0,0,0,996.3,1009.5
2019-08-19T02:01:00+09:00,0.3,�k��,0.7,�k,26.8,82.6,0,0,0,0,0,0,996.3,1009.5
2019-08-19T02:02:00+09:00,0.3,�k��,0.7,�k,26.8,82.3,0,0,0,0,0,0,996.4,1009.6
2019-08-19T02:03:00+09:00,0.3,�k��,0.7,�k,26.8,82.3,0,0,0,0,0,0,996.4,1009.6
2019-08-19T02:04:00+09:00,0.3,�k��,0.7,�k,26.9,82.3,0,0,0,0,0,0,996.4,1009.6
2019-08-19T02:05:00+09:00,0.3,�k�k��,0.7,�k,27.1,81.6,0,0,0,0,0,0,996.4,1009.6
2019-08-19T02:06:00+09:00,0.3,�k�k��,0.7,�k,26.8,81.5,0,0,0,0,0,0,996.4,1009.6
2019-08-19T02:07:00+09:00,0.2,�É�,0.7,�k,26.9,81.7,0,0,0,0,0,0,996.4,1009.6
2019-08-19T02:08:00+09:00,0.2,�É�,0.7,�k,26.9,81.7,0,0,0,0,0,0,996.4,1009.6
2019-08-19T02:09:00+09:00,0.2,�É�,0.7,�k,26.8,81.7,0,0,0,0,0,0,996.4,1009.6
2019-08-19T02:10:00+09:00,0.2,�É�,1,�k�k��,26.8,81.9,0,0,0,0,0,0,996.4,1009.6
2019-08-19T02:11:00+09:00,0.2,�É�,1,�k�k��,26.8,82,0,0,0,0,0,0,996.4,1009.6
2019-08-19T02:12:00+09:00,0.3,�k�k��,1,�k�k��,26.9,82.5,0,0,0,0,0,0,996.4,1009.6
2019-08-19T02:13:00+09:00,0.3,�k�k��,1,�k�k��,27,82.4,0,0,0,0,0,0,996.4,1009.6
2019-08-19T02:14:00+09:00,0.3,�k�k��,1,�k�k��,27.1,82.2,0,0,0,0,0,0,996.4,1009.6
2019-08-19T02:15:00+09:00,0.3,�k�k��,1,�k�k��,27.1,81.4,0,0,0,0,0,0,996.4,1009.6
2019-08-19T02:16:00+09:00,0.4,�k�k��,1.1,�k�k��,27.1,80.9,0,0,0,0,0,0,996.4,1009.6
2019-08-19T02:17:00+09:00,0.5,�k,1.1,�k�k��,27.1,80.7,0,0,0,0,0,0,996.4,1009.6
2019-08-19T02:18:00+09:00,0.5,�k,1.3,�k,27.1,80.4,0,0,0,0,0,0,996.4,1009.6
2019-08-19T02:19:00+09:00,0.5,�k,1.3,�k,27,80.3,0,0,0,0,0,0,996.3,1009.5
2019-08-19T02:20:00+09:00,,,,,,,,,,,,,,
2019-08-19T02:21:00+09:00,0.5,�k,1.3,�k,27.1,80.2,0,0,0,0,0,0,996.3,1009.5
2019-08-19T02:22:00+09:00,0.5,�k,1.3,�k,27.1,79.7,0,0,0,0,0,0,996.4,1009.6
2019-08-19T02:23:00+09:00,0.5,�k,1.4,�k,27.1,79.8,0,0,0,0,0,0,996.4,1009.6
2019-08-19T02:24:00+09:00,0.5,�k,1.4,�k,27.1,79.6,0,0,0,0,0,0,996.4,1009.6
2019-08-19T02:25:00+09:00,0.5,�k,1.4,�k,26.9,80,0,0,0,0,0,0,996.4,1009.6
2019-08-19T02:26:00+09:00,0.5,�k,1.4,�k,26.9,80.6,0,0,0,0,0,0,996.4,1009.6
2019-08-19T02:27:00+09:00,0.4,�k,1.4,�k,27,80.6,0,0,0,0,0,0,996.4,1009.6
2019-08-19T02:28:00+09:00,0.4,�k�k��,1.4,�k,27,80.4,0,0,0,0,0,0,996.4,1009.6
2019-08-19T02:29:00+09:00,0.5,�k�k��,1.4,�k,27.1,80.1,0,0,0,0,0,0,996.4,1009.6
2019-08-19T02:30:00+09:00,0.5,�k�k��,1.4,�k,27.1,79.6,0,0,0,0,0,0,996.4,1009.6
2019-08-19T02:31:00+09:00,0.6,�k�k��,1.4,�k,27.1,79.5,0,0,0,0,0,0,996.4,1009.6
2019-08-19T02:32:00+09:00,0.6,�k��,1.4,�k,27,79.7,0,0,0,0,0,0,996.5,1009.7
2019-08-19T02:33:00+09:00,0.5,�k��,1.2,�k��,26.9,80.1,0,0,0,0,0,0,996.4,1009.6
2019-08-19T02:34:00+09:00,0.5,�k��,1.2,�k��,27,80.3,0,0,0,0,0,0,996.4,1009.6
2019-08-19T02:35:00+09:00,0.5,�k��,1.2,�k��,26.8,80.5,0,0,0,0,0,0,996.4,1009.6
2019-08-19T02:36:00+09:00,0.5,�k�k��,1.2,�k��,27,81,0,0,0,0,0,0,996.4,1009.6
2019-08-19T02:37:00+09:00,0.6,�k�k��,1.2,�k��,27,80.4,0,0,0,0,0,0,996.4,1009.6
2019-08-19T02:38:00+09:00,0.5,�k�k��,1.1,�k��,26.9,79.9,0,0,0,0,0,0,996.5,1009.7
2019-08-19T02:39:00+09:00,0.4,�k�k��,1,�k,26.6,79.6,0,0,0,0,0,0,996.5,1009.7
2019-08-19T02:40:00+09:00,0.4,�k�k��,1,�k,26.6,80.2,0,0,0,0,0,0,996.5,1009.7
2019-08-19T02:41:00+09:00,0.4,�k�k��,1,�k,26.7,80.7,0,0,0,0,0,0,996.5,1009.7
2019-08-19T02:42:00+09:00,0.4,�k�k��,1,�k,26.6,80.9,0,0,0,0,0,0,996.5,1009.7
2019-08-19T02:43:00+09:00,0.5,�k�k��,1.3,���k��,26.5,81.3,0,0,0,0,0,0,996.5,1009.7
2019-08-19T02:44:00+09:00,0.6,�k��,1.3,���k��,26.6,81.4,0,0,0,0,0,0,996.5,1009.7
2019-08-19T02:45:00+09:00,0.6,�k��,1.3,���k��,26.6,81.4,0,0,0,0,0,0,996.5,1009.7
2019-08-19T02:46:00+09:00,0.6,�k��,1.3,���k��,26.7,81.3,0,0,0,0,0,0,996.6,1009.8
2019-08-19T02:47:00+09:00,0.7,���k��,1.6,���k��,26.5,81.5,0,0,0,0,0,0,996.6,1009.8
2019-08-19T02:48:00+09:00,0.8,���k��,1.7,���k��,26.6,81.9,0,0,0,0,0,0,996.6,1009.8
2019-08-19T02:49:00+09:00,1,���k��,1.7,���k��,26.3,82.1,0,0,0,0,0,0,996.6,1009.9
2019-08-19T02:50:00+09:00,1.1,���k��,1.7,���k��,26.3,82.6,0,0,0,0,0,0,996.6,1009.9
2019-08-19T02:51:00+09:00,1.2,���k��,1.7,���k��,26.2,82.8,0,0,0,0,0,0,996.6,1009.9
2019-08-19T02:52:00+09:00,1.3,���k��,1.7,���k��,26.3,83.3,0,0,0,0,0,0,996.6,1009.9
2019-08-19T02:53:00+09:00,1.3,��,1.9,��,26.4,83.1,0,0,0,0,0,0,996.7,1009.9
2019-08-19T02:54:00+09:00,1.4,��,2,��,26,83.1,0,0,0,0,0,0,996.7,1010
2019-08-19T02:55:00+09:00,1.4,��,2,��,25.8,84.2,0,0,0,0,0,0,996.7,1010
2019-08-19T02:56:00+09:00,1.5,��,2,��,25.7,85.1,0,0,0,0,0,0,996.7,1010
2019-08-19T02:57:00+09:00,,,,,,,,,,,,,,
2019-08-19T02:58:00+09:00,1.5,��,2,��,26.1,85.5,0,0,0,0,0,0,996.7,1010
2019-08-19T02:59:00+09:00,1.5,��,2.1,��,26.1,85.3,0,0,0,0,0,0,996.7,1010
2019-08-19T03:00:00+09:00,1.5,��,2.4,��,25.9,85.1,0,0,0,0,0,0,996.7,1010
2019-08-19T03:01:00+09:00,1.6,��,2.4,��,26.1,85.6,0,0,0,0,0,0,996.7,1010
2019-08-19T03:02:00+09:00,1.6,��,2.4,��,25.9,85.1,0,0,0,0,0,0,996.7,1010
2019-08-19T03:03:00+09:00,1.5,��,2.4,��,26.3,85.4,0,0,0,0,0,0,996.7,1010
2019-08-19T03:04:00+09:00,1.5,��,2.4,��,25.9,84.9,0,0,0,0,0,0,996.7,1010
2019-08-19T03:05:00+09:00,1.6,��,2.4,��,25.6,85.6,0,0,0,0,0,0,996.7,1010
2019-08-19T03:06:00+09:00,1.6,��,2.4,��,25.9,86.5,0,0,0,0,0,0,996.7,1010
2019-08-19T03:07:00+09:00,1.5,��,2.4,��,25.9,85.9,0,0,0,0,0,0,996.7,1010
2019-08-19T03:08:00+09:00,1.5,��,2.4,��,26.2,85.5,0,0,0,0,0,0,996.7,1010
2019-08-19T03:09:00+09:00,1.4,��,2.4,��,26.2,84.9,0,0,0,0,0,0,996.7,1010
2019-08-19T03:10:00+09:00,1.3,��,2.1,��,26.4,84.3,0,0,0,0,0,0,996.7,1009.9
2019-08-19T03:11:00+09:00,1.2,���k��,2,��,26.4,83.5,0,0,0,0,0,0,996.7,1009.9
2019-08-19T03:12:00+09:00,1.1,���k��,2,��,26.4,83.1,0,0,0,0,0,0,996.7,1009.9
2019-08-19T03:13:00+09:00,1,���k��,2,��,26.5,82.7,0,0,0,0,0,0,996.7,1009.9
2019-08-19T03:14:00+09:00,0.9,�k��,2,��,26.6,82.3,0,0,0,0,0,0,996.7,1009.9
2019-08-19T03:15:00+09:00,0.8,�k�k��,1.8,��,26.6,82,0,0,0,0,0,0,996.7,1009.9
2019-08-19T03:16:00+09:00,0.7,�k�k��,1.4,��,26.5,81.8,0,0,0,0,0,0,996.7,1009.9
2019-08-19T03:17:00+09:00,0.7,�k,1.2,�k��,26.5,81.8,0,0,0,0,0,0,996.7,1009.9
2019-08-19T03:18:00+09:00,0.7,�k,1.2,�k��,26.4,82,0,0,0,0,0,0,996.7,1009.9
2019-08-19T03:19:00+09:00,0.7,�k�k��,1.3,�k�k��,26.5,82.1,0,0,0,0,0,0,996.7,1009.9
2019-08-19T03:20:00+09:00,0.7,�k�k��,1.3,�k�k��,26.4,82,0,0,0,0,0,0,996.6,1009.8
2019-08-19T03:21:00+09:00,0.7,�k�k��,1.3,�k�k��,26.3,82,0,0,0,0,0,0,996.6,1009.9
2019-08-19T03:22:00+09:00,0.7,�k��,1.5,��,26.1,82.5,0,0,0,0,0,0,996.6,1009.9
2019-08-19T03:23:00+09:00,0.7,�k��,1.5,��,26.1,83.6,0,0,0,0,0,0,996.6,1009.9
2019-08-19T03:24:00+09:00,0.8,�k��,1.5,��,26.1,83.4,0,0,0,0,0,0,996.6,1009.9
2019-08-19T03:25:00+09:00,0.8,�k��,1.5,��,26.1,83.4,0,0,0,0,0,0,996.5,1009.8
2019-08-19T03:26:00+09:00,0.7,�k��,1.5,��,26,83.9,0,0,0,0,0,0,996.6,1009.9
2019-08-19T03:27:00+09:00,0.7,���k��,1.5,��,26.2,83.6,0,0,0,0,0,0,996.6,1009.9
2019-08-19T03:28:00+09:00,0.6,���k��,1.5,��,26.3,83.5,0,0,0,0,0,0,996.6,1009.9
2019-08-19T03:29:00+09:00,0.6,���k��,1.5,��,26.2,83.1,0,0,0,0,0,0,996.6,1009.9
2019-08-19T03:30:00+09:00,0.5,���k��,1.5,��,26.1,83.2,0,0,0,0,0,0,996.6,1009.9
2019-08-19T03:31:00+09:00,0.5,���k��,1.5,��,26.2,83.6,0,0,0,0,0,0,996.5,1009.8
2019-08-19T03:32:00+09:00,0.5,�k��,1.3,��,26.3,83.5,0,0,0,0,0,0,996.5,1009.7
2019-08-19T03:33:00+09:00,,,,,,,,,,,,,,
2019-08-19T03:34:00+09:00,0.4,�k�k��,1,�k��,26.5,82.2,0,0,0,0,0,0,996.5,1009.7
2019-08-19T03:35:00+09:00,0.4,�k,0.8,���k��,26.5,81.7,0,0,0,0,0,0,996.5,1009.7
2019-08-19T03:36:00+09:00,0.4,�k,0.8,���k��,26.5,81.4,0,0,0,0,0,0,996.5,1009.7
2019-08-19T03:37:00+09:00,0.4,�k,0.9,�k,26.4,81.3,0,0,0,0,0,0,996.5,1009.7
2019-08-19T03:38:00+09:00,0.5,�k�k��,1.2,�k�k��,26.5,81.2,0,0,0,0,0,0,996.4,1009.6
2019-08-19T03:39:00+09:00,0.6,�k�k��,1.4,�k�k��,26.5,81.1,0,0,0,0,0,0,996.4,1009.6
2019-08-19T03:40:00+09:00,0.6,�k�k��,1.4,�k�k��,26.6,80.8,0,0,0,0,0,0,996.4,1009.6
2019-08-19T03:41:00+09:00,0.6,�k,1.4,�k�k��,26.3,80.9,0,0,0,0,0,0,996.4,1009.6
2019-08-19T03:42:00+09:00,0.6,�k,1.4,�k�k��,26.3,81.2,0,0,0,0,0,0,996.4,1009.6
2019-08-19T03:43:00+09:00,0.7,�k,1.4,�k�k��,26,81.7,0,0,0,0,0,0,996.4,1009.7
2019-08-19T03:44:00+09:00,0.7,�k,1.4,�k�k��,26.1,82.4,0,0,0,0,0,0,996.4,1009.7
2019-08-19T03:45:00+09:00,0.8,�k�k��,1.4,�k�k��,26.3,82.1,0,0,0,0,0,0,996.4,1009.6
2019-08-19T03:46:00+09:00,0.7,�k�k��,1.4,�k�k��,26.1,81.8,0,0,0,0,0,0,996.4,1009.7
2019-08-19T03:47:00+09:00,0.7,�k�k��,1.4,�k�k��,26.1,82.5,0,0,0,0,0,0,996.4,1009.7
2019-08-19T03:48:00+09:00,0.7,�k��,1.4,�k�k��,26.3,82.7,0,0,0,0,0,0,996.4,1009.6
2019-08-19T03:49:00+09:00,0.7,�k��,1.4,�k��,26.1,82.5,0,0,0,0,0,0,996.4,1009.7
2019-08-19T03:50:00+09:00,0.7,�k��,1.4,�k��,26.1,82.8,0,0,0,0,0,0,996.4,1009.7
2019-08-19T03:51:00+09:00,0.8,���k��,1.4,�k��,26.2,82.8,0,0,0,0,0,0,996.5,1009.8
2019-08-19T03:52:00+09:00,0.8,���k��,1.4,�k��,26.1,82.9,0,0,0,0,0,0,996.5,1009.8
2019-08-19T03:53:00+09:00,0.8,���k��,1.4,�k��,25.9,83.3,0,0,0,0,0,0,996.5,1009.8
2019-08-19T03:54:00+09:00,0.7,���k��,1.4,�k��,25.5,83.7,0,0,0,0,0,0,996.4,1009.7
2019-08-19T03:55:00+09:00,0.7,��,1.4,�k��,25.1,85.1,0,0,0,0,0,0,996.4,1009.7
2019-08-19T03:56:00+09:00,0.7,��,1.4,�k��,25.1,86.7,0,0,0,0,0,0,996.4,1009.7
2019-08-19T03:57:00+09:00,0.7,��,1.4,�k��,25.4,87.6,0,0,0,0,0,0,996.4,1009.7
2019-08-19T03:58:00+09:00,0.8,��,1.4,�k��,25.9,87.1,0,0,0,0,0,0,996.4,1009.7
2019-08-19T03:59:00+09:00,0.8,��,1.4,��,25.9,85.6,0,0,0,0,0,0,996.4,1009.7
2019-08-19T04:00:00+09:00,0.8,��,1.4,��,26.1,84.8,0,0,0,0,0,0,996.4,1009.7
2019-08-19T04:01:00+09:00,0.8,��,1.8,�k��,26.1,84.2,0,0,0,0,0,0,996.4,1009.7
2019-08-19T04:02:00+09:00,0.8,���k��,1.8,�k��,26.1,83.9,0,0,0,0,0,0,996.4,1009.7
2019-08-19T04:03:00+09:00,0.8,���k��,1.8,�k��,26.1,83.8,0,0,0,0,0,0,996.4,1009.7
2019-08-19T04:04:00+09:00,0.9,���k��,1.8,�k��,26,83.8,0,0,0,0,0,0,996.4,1009.7
2019-08-19T04:05:00+09:00,0.9,���k��,1.8,�k��,26.1,83.9,0,0,0,0,0,0,996.4,1009.7
2019-08-19T04:06:00+09:00,0.9,���k��,1.8,�k��,26.2,83.7,0,0,0,0,0,0,996.4,1009.7
2019-08-19T04:07:00+09:00,,,,,,,,,,,,,,
2019-08-19T04:08:00+09:00,0.7,���k��,1.8,�k��,26.2,83.6,0,0,0,0,0,0,996.4,1009.7
2019-08-19T04:09:00+09:00,0.6,���k��,1.8,�k��,26.2,83.4,0,0,0,0,0,0,996.4,1009.7
2019-08-19T04:10:00+09:00,0.6,���k��,1.8,�k��,26.1,83.3,0,0,0,0,0,0,996.4,1009.7
2019-08-19T04:11:00+09:00,0.5,���k��,1.4,�k��,26.1,83.4,0,0,0,0,0,0,996.4,1009.7
2019-08-19T04:12:00+09:00,0.4,���k��,1,�k��,26.1,83.4,0,0,0,0,0,0,996.3,1009.6
2019-08-19T04:13:00+09:00,0.4,���k��,0.8,��,26.1,83.4,0,0,0,0,0,0,996.3,1009.6
2019-08-19T04:14:00+09:00,0.4,���k��,1.2,���k��,26.1,83.3,0,0,0,0,0,0,996.3,1009.6
2019-08-19T04:15:00+09:00,0.4,���k��,1.2,���k��,26.2,83.3,0,0,0,0,0,0,996.3,1009.6
2019-08-19T04:16:00+09:00,0.4,���k��,1.2,���k��,26.3,82.8,0,0,0,0,0,0,996.3,1009.5
2019-08-19T04:17:00+09:00,0.4,�k��,1.2,���k��,26.2,82.5,0,0,0,0,0,0,996.3,1009.6
2019-08-19T04:18:00+09:00,0.5,�k��,1.3,���k��,26.3,82.6,0,0,0,0,0,0,996.3,1009.5
2019-08-19T04:19:00+09:00,0.6,���k��,1.5,��,26.3,82.4,0,0,0,0,0,0,996.3,1009.5
2019-08-19T04:20:00+09:00,0.7,���k��,1.6,��,25.8,82.4,0,0,0,0,0,0,996.3,1009.6
2019-08-19T04:21:00+09:00,0.9,���k��,1.6,��,25.9,83.1,0,0,0,0,0,0,996.3,1009.6
2019-08-19T04:22:00+09:00,0.9,���k��,1.6,��,26.2,83.1,0,0,0,0,0,0,996.3,1009.6
2019-08-19T04:23:00+09:00,1,���k��,1.6,��,25.9,82.9,0,0,0,0,0,0,996.3,1009.6
2019-08-19T04:24:00+09:00,1,���k��,1.6,��,25.8,83.2,0,0,0,0,0,0,996.3,1009.6
2019-08-19T04:25:00+09:00,1,���k��,1.6,��,26.1,83.4,0,0,0,0,0,0,996.3,1009.6
2019-08-19T04:26:00+09:00,1.1,���k��,1.6,��,26.1,83.2,0,0,0,0,0,0,996.3,1009.6
2019-08-19T04:27:00+09:00,1.1,���k��,1.6,��,26,83.1,0,0,0,0,0,0,996.3,1009.6
2019-08-19T04:28:00+09:00,1.1,���k��,1.6,��,26.3,82.8,0,0,0,0,0,0,996.3,1009.5
2019-08-19T04:29:00+09:00,1.1,���k��,1.6,��,26,82.4,0,0,0,0,0,0,996.4,1009.7
2019-08-19T04:30:00+09:00,1,���k��,1.6,���k��,26,82.8,0,0,0,0,0,0,996.3,1009.6
2019-08-19T04:31:00+09:00,1,���k��,1.4,���k��,26,83,0,0,0,0,0,0,996.3,1009.6
2019-08-19T04:32:00+09:00,1,���k��,1.4,���k��,26,83,0,0,0,0,0,0,996.3,1009.6
2019-08-19T04:33:00+09:00,1,���k��,1.4,���k��,26.1,83,0,0,0,0,0,0,996.3,1009.6
2019-08-19T04:34:00+09:00,1,���k��,1.4,���k��,26.1,82.8,0,0,0,0,0,0,996.3,1009.6
2019-08-19T04:35:00+09:00,1,��,1.5,��,26.1,82.6,0,0,0,0,0,0,996.3,1009.6
2019-08-19T04:36:00+09:00,1,��,1.5,��,26,82.6,0,0,0,0,0,0,996.4,1009.7
2019-08-19T04:37:00+09:00,1,��,1.5,��,26.1,82.8,0,0,0,0,0,0,996.4,1009.7
2019-08-19T04:38:00+09:00,1,��,1.8,��,26,82.7,0,0,0,0,0,0,996.4,1009.7
2019-08-19T04:39:00+09:00,1,��,1.8,��,25.7,83,0,0,0,0,0,0,996.4,1009.7
2019-08-19T04:40:00+09:00,1,��,1.8,��,25.2,83.9,0,0,0,0,0,0,996.4,1009.7
2019-08-19T04:41:00+09:00,1,��,1.8,��,25,85.7,0,0,0,0,0,0,996.4,1009.7
2019-08-19T04:42:00+09:00,,,,,,,,,,,,,,
2019-08-19T04:43:00+09:00,1,��,1.8,��,24.9,88.2,0,0,0,0,0,0,996.5,1009.8
2019-08-19T04:44:00+09:00,0.9,��,1.8,��,25.3,88.8,0,0,0,0,0,0,996.5,1009.8
2019-08-19T04:45:00+09:00,1,��,1.8,��,25.5,88.1,0,0,0,0,0,0,996.5,1009.8
2019-08-19T04:46:00+09:00,1,��,1.8,��,25.7,87.4,0,0,0,0,0,0,996.5,1009.8
2019-08-19T04:47:00+09:00,1,��,1.8,��,25.4,86.6,0,0,0,0,0,0,996.6,1009.9
2019-08-19T04:48:00+09:00,1,��,2.1,��,25.1,86.9,0,0,0,0,0,0,996.6,1009.9
2019-08-19T04:49:00+09:00,1.1,��,2.1,��,25,87.6,0,0,0,0,0,0,996.6,1009.9
2019-08-19T04:50:00+09:00,1.1,��,2.1,��,25.3,88.5,0,0,0,0,0,0,996.6,1009.9
2019-08-19T04:51:00+09:00,1,��,2.1,��,25.2,88,0,0,0,0,0,0,996.6,1009.9
2019-08-19T04:52:00+09:00,1.1,��,2.1,��,25.1,88.1,0,0,0,0,0,0,996.6,1009.9
2019-08-19T04:53:00+09:00,1.1,��,2.1,��,24.9,88.4,0,0,0,0,0,0,996.6,1009.9
2019-08-19T04:54:00+09:00,1.1,��,2.1,��,25.4,89,0,0,0,0,0,0,996.6,1009.9
2019-08-19T04:55:00+09:00,1,��,2.1,��,25.5,88.2,0,0,0,0,0,0,996.6,1009.9
2019-08-19T04:56:00+09:00,0.9,��,2.1,��,25.7,87.5,0,0,0,0,0,0,996.6,1009.9
2019-08-19T04:57:00+09:00,0.9,���k��,2.1,��,25.7,86.8,0,0,0,0,0,0,996.6,1009.9
2019-08-19T04:58:00+09:00,0.8,���k��,2.1,��,25.8,86.3,0,0,0,0,0,0,996.6,1009.9
2019-08-19T04:59:00+09:00,0.7,���k��,1.5,��,26,85.7,0,0,0,0,0,0,996.6,1009.9
2019-08-19T05:00:00+09:00,0.7,���k��,1.5,��,26,85.1,0,0,0,0,0,0,996.6,1009.9
2019-08-19T05:01:00+09:00,0.7,���k��,1.5,��,26,84.7,0,0,0,0,0,0,996.6,1009.9
2019-08-19T05:02:00+09:00,0.6,���k��,1,���k��,26.1,84.5,0,0,0,0,0,0,996.6,1009.9
2019-08-19T05:03:00+09:00,0.5,���k��,0.9,���k��,25.9,84,0,0,0,0,0,0,996.5,1009.8
2019-08-19T05:04:00+09:00,0.6,���k��,1,�k��,25.9,84,0,0,0,0,0,0,996.5,1009.8
2019-08-19T05:05:00+09:00,0.6,���k��,1,�k��,25.8,84.3,0,0,0,0,0,0,996.5,1009.8
2019-08-19T05:06:00+09:00,0.6,���k��,1.1,��,25.9,84.7,0,0,0,0,0,0,996.6,1009.9
2019-08-19T05:07:00+09:00,0.6,���k��,1.1,��,25.9,84.9,0,0,0,0,0,0,996.6,1009.9
2019-08-19T05:08:00+09:00,0.7,���k��,1.1,��,25.9,85.2,0,0,0,0,0,0,996.6,1009.9